Flag for Czech Republic Weather past 2 weeks in Prague, Czech Republic

Now
37 °F

Passing clouds.


Feels Like: 28 °F
Forecast: 34 / 41 °F
Wind: 15 mph from West

Location: Prague Ruzyne Airport

Current Time: Dec 20, 2014 at 4:04:48 AM

Latest Report: Dec 20, 2014 at 3:30 AM


Visibility: N/A

Pressure: 30.07 "Hg

Humidity: 81%

Dew point: 32 °F

Location of PragueLocation

Historic Weather in Prague — Graph

°F

Prague temperature yesterday

Maximum temperature yesterday: 52 °F (at 12:30 AM)
Minimum temperature yesterday: 43 °F (at 9:00 PM)
Average temperature yesterday: 50 °F

Past Weeks' High & Low Weather Summary

 TemperatureHumidityPressure
High52 °F (Dec 19, 12:30 AM)100% (Dec 5, 7:00 AM)30.42 "Hg (Dec 5, 7:00 AM)
Low27 °F (Dec 9, 1:30 AM)61% (Dec 12, 5:30 PM)29.65 "Hg (Dec 12, 5:30 PM)
Average40 °F85%29.98 "Hg
* Reported Dec 5 3:00 AM — Dec 20 3:00 AM, Prague, Weather by CustomWeather, © 2014

Note: Actual official high and low records may vary slightly from our data, if they occured in-between our weather recording intervals... More about our weather records

Advertising

Prague weather history for previous 24 hours

 ConditionsComfort  
Time TempWeatherWind HumidityBarometerVisibility
3:00 AM
Dec 20
37 °FPassing clouds.10 mph81%30.04 "HgN/A
2:30 AM39 °FPassing clouds.15 mph75%30.04 "HgN/A
2:00 AM41 °FPassing clouds.15 mph70%30.04 "HgN/A
1:30 AM41 °FPassing clouds.13 mph76%30.01 "HgN/A
1:00 AM41 °FPassing clouds.18 mph76%30.01 "HgN/A
12:30 AM43 °FSprinkles. Passing clouds.16 mph93%29.98 "HgN/A
12:00 AM45 °FPartly cloudy.10 mph87%29.95 "HgN/A
11:30 PM
Dec 19
43 °FPassing clouds.12 mph93%29.95 "HgN/A
11:00 PM45 °FPassing clouds.12 mph87%29.92 "HgN/A
10:30 PM45 °FPassing clouds.10 mph87%29.92 "HgN/A
10:00 PM45 °FPassing clouds.13 mph81%29.92 "HgN/A
9:30 PM43 °FLight rain. Passing clouds.9 mph93%29.92 "HgN/A
9:00 PM43 °FLight rain. Passing clouds.10 mph93%29.92 "HgN/A
8:30 PM48 °FRain showers. Partly cloudy.18 mph87%29.92 "Hg4 mi
8:00 PM48 °FLight rain. Passing clouds.24 mph82%29.86 "HgN/A
7:30 PM50 °FLight rain. Passing clouds.26 mph76%29.86 "HgN/A
7:00 PM48 °FLight rain. Passing clouds.25 mph82%29.86 "HgN/A
6:30 PM48 °FLight rain. Passing clouds.25 mph82%29.86 "HgN/A
6:00 PM50 °FLight rain. Passing clouds.23 mph76%29.86 "HgN/A
5:30 PM50 °FLight rain. Passing clouds.23 mph76%29.86 "HgN/A
5:00 PM50 °FPassing clouds.23 mph76%29.86 "HgN/A
4:30 PM50 °FPassing clouds.24 mph76%29.86 "HgN/A
4:00 PM50 °FLight rain. Partly sunny.23 mph76%29.86 "HgN/A
3:30 PM50 °FPartly sunny.25 mph76%29.86 "HgN/A
3:00 PM50 °FLight rain. Scattered clouds.22 mph82%29.86 "HgN/A
2:30 PM52 °FLight rain. Scattered clouds.24 mph72%29.86 "HgN/A
2:00 PM52 °FPartly sunny.24 mph72%29.89 "HgN/A
1:30 PM52 °FPartly sunny.20 mph72%29.86 "HgN/A
1:00 PM52 °FPartly sunny.20 mph72%29.89 "HgN/A
12:30 PM52 °FPartly sunny.23 mph72%29.89 "HgN/A
12:00 PM50 °FPartly sunny.26 mph76%29.89 "HgN/A
11:30 AM50 °FScattered clouds.33 mph76%29.89 "HgN/A
11:00 AM50 °FPartly sunny.31 mph76%29.92 "HgN/A
10:30 AM50 °FPassing clouds.28 mph76%29.92 "HgN/A
10:00 AM50 °FScattered clouds.23 mph76%29.92 "HgN/A
9:30 AM50 °FPartly sunny.24 mph76%29.95 "HgN/A
9:00 AM50 °FPartly sunny.26 mph76%29.95 "HgN/A
8:30 AM50 °FPartly sunny.26 mph76%29.92 "HgN/A
8:00 AM50 °FScattered clouds.29 mph76%29.92 "HgN/A
7:30 AM50 °FPassing clouds.25 mph76%29.92 "HgN/A
7:00 AM50 °FPassing clouds.25 mph82%29.92 "HgN/A
6:30 AM50 °FPassing clouds.25 mph76%29.92 "HgN/A
6:00 AM50 °FPassing clouds.23 mph82%29.92 "HgN/A
5:30 AM50 °FPassing clouds.22 mph82%29.92 "HgN/A
4:30 AM52 °FPassing clouds.23 mph82%29.89 "HgN/A
4:00 AM52 °FPassing clouds.23 mph82%29.89 "HgN/A
Weather by CustomWeather, © 2014

See weather overviewHow to use our weather pages